Regional Weather Roundup
Issued by NWS

Home | Current Version | Previous Version | Graphics & Text | Print | Product List | Glossary On
Versions: 1 2 3 4 5 6 7 8 9 10 11 12 13 14 15 16 17 18 19 20 21 22 23 24 25 26 27 28 29 30 31 32 33 34 35 36 37 38 39 40 41 42 43 44 45 46 47 48 49 50
000
ASUS44 KMEG 180200
RWRTN
TENNESSEE HOURLY STATE WEATHER ROUNDUP
NATIONAL WEATHER SERVICE MEMPHIS TN
900 PM CDT TUE OCT 17 2017

TNZ002-004-019-021-049-052-054-088>092-180300-
WEST TENNESSEE

CITY           SKY/WX    TMP DP  RH WIND       PRES   REMARKS
MEMPHIS INTL   CLEAR     57  48  72 CALM      30.23S
NWS MEMPHIS      N/A     53 N/A N/A MISG        N/A
JACKSON        CLEAR     50  49  96 CALM      30.25S
$$

TNZ008-025-027-028-033-062-065-066-180300-
NORTH MIDDLE TENNESSEE

CITY           SKY/WX    TMP DP  RH WIND       PRES   REMARKS
NASHVILLE      PTCLDY    54  43  66 CALM      30.27S
CLARKSVILLE    CLEAR     51  44  77 CALM      30.26S
SMYRNA         PTCLDY    50  45  83 CALM      30.28S
CROSSVILLE     CLEAR     47  42  83 CALM      30.30S
$$

TNZ061-075-076-078-094-096-097-180300-
SOUTH MIDDLE TENNESSEE

CITY           SKY/WX    TMP DP  RH WIND       PRES   REMARKS
$$

TNZ017-018-042-046-047-180300-
NORTHEAST TENNESSEE

CITY           SKY/WX    TMP DP  RH WIND       PRES   REMARKS
TRI CITIES     CLEAR     46  42  86 CALM      30.31R
$$

TNZ012-013-036-069-073-074-180300-
CENTRAL EAST TENNESSEE

CITY           SKY/WX    TMP DP  RH WIND       PRES   REMARKS
KNOXVILLE      PTCLDY    53  47  79 CALM      30.28R
OAK RIDGE      CLEAR     50  48  93 CALM      30.31R
$$

TNZ083-085-099-180300-
SOUTHEAST TENNESSEE

CITY           SKY/WX    TMP DP  RH WIND       PRES   REMARKS
CHATTANOOGA    CLEAR     53  47  79 CALM      30.28R
$$

SKY/WX REPORTED AS FAIR MEANS FEW OR NO CLOUDS BELOW
12 THOUSAND FEET.




USA.gov is the U.S. government's official web portal to all federal, state and local government web resources and services.